Weather History for KDDH - March, 2013

Change the Weather History Date:

Tuesday, March 12, 2013

  Actual Average Record
Temperature  
Mean Temperature 46 °F 32 °F  
Max Temperature 54 °F 42 °F 68 °F (2012)
Min Temperature 37 °F 21 °F 14 °F (2001)
Degree Days  
Heating Degree Days 19 33  
Month to date heating degree days 376 421  
Since 1 July heating degree days 5160 5672  
Cooling Degree Days 0 0  
Month to date cooling degree days 0 0  
Year to date cooling degree days 0 0  
Moisture  
Dew Point 43 °F    
Average Humidity 78    
Maximum Humidity 85    
Minimum Humidity 71    
Precipitation  
Precipitation 0.50 in 0.09 in 0.82 in (2014)
Month to date precipitation 0.79 1.09  
Year to date precipitation 3.45 6.08  
Sea Level Pressure  
Sea Level Pressure 29.81 in    
Wind  
Wind Speed 17 mph (South)    
Max Wind Speed 24 mph    
Max Gust Speed 40 mph    
Visibility 7 miles    
Events Rain    
T = Trace of Precipitation, MM = Missing Value Source: NWS Daily Summary

Daily Weather History Graph

Daily Weather History Graph

Search for Another Location

Airport or City:

Trip Planner

Search our weather history database for the weather conditions in past years. The results will help you decide how hot, cold, wet, or windy it might be!

Date:

Astronomy

Mar. 12, 2013 Rise Set
Actual Time 7:09 AM EDT 6:56 PM EDT
Civil Twilight 6:41 AM EDT 7:24 PM EDT
Nautical Twilight 6:08 AM EDT 7:57 PM EDT
Astronomical Twilight 5:35 AM EDT 8:30 PM EDT
Moon 7:12 AM EDT (3/12) 8:11 PM EDT (3/12)
Length of Visible Light 12h 42m
Length of Day
11h 46m
New Moon, 1% of the Moon is Illuminated
Mar 12
New Moon
Mar 19
First Quarter
Mar 27
Full
Apr 3
Last Quarter
Apr 10
New

Hourly Weather History & Observations

Time (EDT) Temp. Windchill Dew Point Humidity Pressure Visibility Wind Dir Wind Speed Gust Speed Precip Events Conditions
12:54 AM 48.9 °F - 39.0 °F 69% 30.01 in 10.0 mi South 17.3 mph 29.9 mph N/A   Scattered Clouds
2:54 AM 50.0 °F - 42.1 °F 74% 29.93 in 10.0 mi SSE 23.0 mph 35.7 mph N/A   Mostly Cloudy
3:54 AM 50.0 °F - 43.0 °F 77% 29.92 in 10.0 mi SSE 18.4 mph 28.8 mph N/A   Overcast
4:54 AM 51.1 °F - 43.0 °F 74% 29.91 in 10.0 mi SSE 18.4 mph 26.5 mph N/A   Overcast
5:54 AM 51.1 °F - 43.0 °F 74% 29.92 in 10.0 mi South 13.8 mph 27.6 mph N/A   Overcast
6:54 AM 51.1 °F - 43.0 °F 74% 29.91 in 10.0 mi South 17.3 mph 25.3 mph N/A   Overcast
7:19 AM 51.8 °F - 44.6 °F 76% 29.90 in 10.0 mi South 13.8 mph 21.9 mph N/A   Overcast
7:54 AM 51.1 °F - 44.1 °F 77% 29.90 in 10.0 mi SSE 19.6 mph 26.5 mph N/A   Overcast
8:35 AM 51.8 °F - 44.6 °F 76% 29.88 in 10.0 mi SSE 24.2 mph 35.7 mph N/A   Overcast
8:54 AM 52.0 °F - 45.0 °F 77% 29.89 in 10.0 mi SSE 17.3 mph 32.2 mph N/A   Overcast
9:02 AM 51.8 °F - 44.6 °F 76% 29.88 in 10.0 mi SSE 13.8 mph 24.2 mph N/A   Overcast
9:54 AM 53.1 °F - 45.0 °F 74% 29.88 in 10.0 mi South 21.9 mph 34.5 mph 0.00 in Rain Light Rain
10:27 AM 51.8 °F - 46.4 °F 82% 29.86 in 10.0 mi South 17.3 mph 31.1 mph 0.00 in Rain Light Rain
10:54 AM 52.0 °F - 46.0 °F 80% 29.86 in 10.0 mi South 17.3 mph 28.8 mph 0.01 in Rain Light Rain
11:54 AM 53.1 °F - 46.0 °F 77% 29.83 in 10.0 mi SSE 18.4 mph 31.1 mph 0.01 in Rain Light Rain
12:54 PM 53.1 °F - 46.9 °F 80% 29.82 in 10.0 mi SSE 13.8 mph 27.6 mph 0.01 in Rain Light Rain
1:54 PM 53.1 °F - 46.9 °F 80% 29.79 in 8.0 mi SE 11.5 mph - 0.02 in Rain Light Rain
2:54 PM 53.1 °F - 46.9 °F 80% 29.73 in 6.0 mi SE 19.6 mph 27.6 mph 0.03 in Rain Light Rain
3:54 PM 53.1 °F - 46.9 °F 80% 29.70 in 4.0 mi SE 20.7 mph 31.1 mph 0.11 in Rain Light Rain
4:36 PM 53.6 °F - 46.4 °F 77% 29.69 in 2.5 mi SSE 20.7 mph 31.1 mph 0.12 in Rain Rain
4:43 PM 53.6 °F - 46.4 °F 77% 29.68 in 3.0 mi SE 16.1 mph 29.9 mph 0.14 in Rain Rain
4:54 PM 52.0 °F - 46.9 °F 83% 29.67 in 2.5 mi SE 16.1 mph 28.8 mph 0.19 in Rain Rain
5:11 PM 53.6 °F - 46.4 °F 77% 29.65 in 5.0 mi SSE 20.7 mph 28.8 mph 0.04 in Rain Light Rain
5:54 PM 54.0 °F - 46.9 °F 77% 29.65 in 7.0 mi SSE 19.6 mph 27.6 mph 0.05 in   Overcast
6:25 PM 51.8 °F - 48.2 °F 88% 29.68 in 2.5 mi West 11.5 mph 19.6 mph 0.01 in Rain Light Rain
6:28 PM 48.2 °F - 46.4 °F 93% 29.68 in 1.8 mi West 13.8 mph 19.6 mph 0.02 in Rain Light Rain
6:42 PM 44.6 °F - 42.8 °F 93% 29.70 in 2.0 mi Calm Calm - 0.03 in Rain Light Rain
6:50 PM 44.6 °F 43.1 °F 42.8 °F 93% 29.71 in 3.0 mi Variable 3.5 mph - 0.04 in Rain Light Rain
6:51 PM 44.1 °F 40.8 °F 41.0 °F 89% 29.72 in 3.0 mi Variable 5.8 mph - 0.04 in Rain Light Rain
7:18 PM 42.8 °F 35.4 °F 39.2 °F 87% 29.73 in 3.0 mi WSW 15.0 mph 20.7 mph 0.00 in   Overcast
7:54 PM 41.0 °F 35.2 °F 37.9 °F 89% 29.77 in 3.0 mi SW 9.2 mph 17.3 mph 0.01 in Rain Light Rain
8:47 PM 39.2 °F 33.6 °F 37.4 °F 93% 29.78 in 10.0 mi WSW 8.1 mph - 0.01 in   Overcast
8:54 PM 39.9 °F 33.4 °F 36.0 °F 86% 29.80 in 8.0 mi SW 10.4 mph - 0.01 in   Overcast
9:12 PM 39.2 °F 33.6 °F 35.6 °F 87% 29.80 in 6.0 mi WSW 8.1 mph - N/A   Overcast
9:54 PM 37.9 °F 31.5 °F 35.1 °F 89% 29.83 in 8.0 mi WSW 9.2 mph - 0.01 in Rain Light Rain
10:25 PM 37.4 °F 32.1 °F 35.6 °F 93% 29.83 in 10.0 mi WSW 6.9 mph - 0.00 in   Overcast
10:54 PM 37.9 °F 34.4 °F 34.0 °F 86% 29.86 in 10.0 mi SW 4.6 mph - 0.00 in   Overcast
11:54 PM 37.0 °F 31.6 °F 33.1 °F 86% 29.85 in 10.0 mi SW 6.9 mph - N/A   Overcast